Regional Weather Roundup
Issued by NWS Green Bay, WI

Home | Current Version | Previous Version | Graphics & Text | Print | Product List | Glossary Off
Versions: 1 2 3 4 5 6 7 8 9 10 11 12 13 14 15 16 17 18 19 20 21 22 23 24 25 26 27 28 29 30 31 32 33 34 35 36 37 38 39 40 41 42 43 44 45 46 47 48 49 50

000
ASUS43 KGRB 291800
RWRGRB

NORTH-CENTRAL AND NORTHEAST WISCONSIN REGIONAL WEATHER ROUNDUP
NATIONAL WEATHER SERVICE GREEN BAY WI
100 PM CDT SAT AUG 29 2015

WIZ005-009-010>012-018-019-291900-
NORTH CENTRAL WISCONSIN

CITY           SKY/WX    TMP DP  RH WIND       PRES   REMARKS
IRONWOOD       PTSUNNY   73  59  60 SW5       30.01F
MANITOWISH WTR NOT AVBL
ARBOR VITAE    NOT AVBL
EAGLE RIVER    NOT AVBL
LAND O LAKES   NOT AVBL
RHINELANDER    SUNNY     69  58  67 S7        30.09S
PHILLIPS       SUNNY     70  58  66 SW5       30.07F
ANTIGO         NOT AVBL
TOMAHAWK       NOT AVBL
MERRILL        NOT AVBL
$$

WIZ013-073-291900-
NORTHEAST WISCONSIN

CITY           SKY/WX    TMP DP  RH WIND       PRES   REMARKS
IRON MOUNTAIN  PTSUNNY   74  59  59 S9        30.05F
MARINETTE      CLOUDY    66  57  72 S6        30.07S
$$

WIZ017-030-035>037-045-291900-
CENTRAL WISCONSIN

CITY           SKY/WX    TMP DP  RH WIND       PRES   REMARKS
MEDFORD        NOT AVBL
WAUSAU         CLOUDY    64  59  83 CALM      30.06F
MOSINEE        CLOUDY    63  61  94 CALM      30.09S
MARSHFIELD     CLOUDY    65  58  78 E5        30.08R
WISC RAPIDS    NOT AVBL
STEVENS POINT  NOT AVBL
WAUPACA        NOT AVBL
SHAWANO        NOT AVBL
CLINTONVILLE   CLOUDY    64  61  88 SE5       30.07S
WAUTOMA        NOT AVBL
$$

WIZ038-039-048-051-291900-
FOX VALLEY

CITY           SKY/WX    TMP DP  RH WIND       PRES   REMARKS
NWS GREEN BAY  CLOUDY    68  62  81 CALM      30.07F
APPLETON       CLOUDY    66  63  88 E5        30.06S
OSHKOSH        CLOUDY    65  61  87 E6        30.06S
FOND DU LAC    CLOUDY    66  62  87 S5        30.06S
$$

WIZ022-050-052-291900-
EAST CENTRAL WISCONSIN

CITY           SKY/WX    TMP DP  RH WIND       PRES   REMARKS
EPHRAIM        CLOUDY    68  60  75 S9        30.07F
STURGEON BAY   CLOUDY    64  59  82 S8        30.10F
MANITOWOC      NOT AVBL
SHEBOYGAN      CLOUDY    65  61  87 SE7       30.06S
$$

LMZ563-521-522-541>543-291900-
LAKESHORE

STATION/POSITION TIME  TEMP    WIND        PRES    VSBY  WAVE
                       AIR SEA DIR/SP/G                  HT/PER
                 (UTC) (F)     (DEG/KT/KT) (MB)    (MI)  (FT/S)
SHEBOYGAN LKSHOR 1700   58     150/  5/  6 1018.3F
ALGOMA MARINA    1744             CALM       N/A
NORTHPORT PIER   1700   65     140/  6/  8 1018.6S
N MID LAKE BUOY  1650   63 64  200/ 10/ 10 1018.7R         1/ 3
S GREEN BAY BUOY 1700   62 62  310/  2/  2 1020.0F
SISTER BAY LKSHO 1719   69     200/ 11/ 12   N/A
CHAMBERS ISLAND  1700   65     160/  5/  9 1018.6F
$$


USA.gov is the U.S. government's official web portal to all federal, state and local government web resources and services.